Location: *
(49.0044°N, 9.5056°E)
Time: 04:45:24
(UTC+00:00)

USA 186 - Pass Details

Date: 22 September 2019
Orbit: 261 x 450 km, 96.9° (Epoch: 07 October)

Event Time Altitude Azimuth Distance (km) Brightness Sun altitude
Exits shadow 18:05:08 - 130° (SE) 1,786 4.4 -8.1°
Reaches altitude 10° 18:05:41 10° 126° (SE) 1,587 4.1 -8.2°
Maximum altitude 18:08:34 26° 69° (ENE) 936 3.0 -8.6°
Drops below altitude 10° 18:11:28 10° 11° (N) 1,587 4.7 -9.1°
Sets 18:13:41 0° 359° (N) 2,450 5.8 -9.4°
